Location: Dompnac
(44.5644°N, 4.1026°E)
Time: 09:34:12
(UTC+00:00)

Cosmos 2026 Rocket - Pass Details

Date: 23 January 2021
Orbit: 940 x 1000 km, 82.9° (Epoch: 26 February)

Event Time Altitude Azimuth Distance (km) Brightness Sun altitude
Rises 05:26:15 0° 354° (N) 3,711 6.9 -18.6°
Reaches altitude 10° 05:28:48 10° 357° (N) 2,764 6.2 -18.1°
Maximum altitude 05:35:08 67° 80° (E) 1,078 4.4 -17.0°
Drops below altitude 10° 05:41:27 10° 162° (SSE) 2,763 6.8 -15.9°
Sets 05:44:00 0° 165° (SSE) 3,708 7.4 -15.5°
